WW1TA Weather Reports


time (UTC)temp
C
wind
direction
speed
KPH
gust
KPH
rain 1hr
cm
rain 24hr
cm
rain mn
cm
humidity
%
barometer
mb
20260503215052 20 336 0.0 4.8 0.00 0.00 0.00 50 1019.4
20260503214550 20 251 3.2 4.8 0.00 0.00 0.00 49 1019.4
20260503214046 20 237 1.6 3.2 0.00 0.00 0.00 50 1019.3
20260503213545 20 244 4.8 6.4 0.00 0.00 0.00 50 1019.4
20260503213041 21 43 3.2 3.2 0.00 0.00 0.00 49 1019.3
20260503212539 20 245 4.8 4.8 0.00 0.00 0.00 51 1019.4
20260503212036 21 281 0.0 6.4 0.00 0.00 0.00 48 1019.5
20260503211533 21 247 3.2 4.8 0.00 0.00 0.00 48 1019.5
20260503211029 20 242 1.6 6.4 0.00 0.00 0.00 50 1019.5
20260503210526 20 233 1.6 6.4 0.00 0.00 0.00 50 1019.4
20260503210021 21 254 6.4 8.0 0.00 0.00 0.00 50 1019.7
20260503205518 20 304 0.0 6.4 0.00 0.00 0.00 51 1019.6
20260503205015 20 220 3.2 4.8 0.00 0.00 0.00 48 1019.7
20260503204512 22 263 0.0 4.8 0.00 0.00 0.00 46 1019.8
20260503204009 21 187 3.2 4.8 0.00 0.00 0.00 46 1020.0
20260503203506 22 135 0.0 4.8 0.00 0.00 0.00 46 1019.9
20260503203003 22 103 3.2 6.4 0.00 0.00 0.00 45 1019.7
20260503202501 21 273 0.0 4.8 0.00 0.00 0.00 47 1020.0
20260503201959 21 237 4.8 6.4 0.00 0.00 0.00 47 1019.9
20260503201456 21 245 3.2 6.4 0.00 0.00 0.00 49 1020.1
20260503200954 20 172 4.8 4.8 0.00 0.00 0.00 47 1019.9
20260503200450 20 288 1.6 6.4 0.00 0.00 0.00 52 1019.9
20260503195946 21 239 3.2 4.8 0.00 0.00 0.00 46 1019.9
20260503195444 21 195 0.0 6.4 0.00 0.00 0.00 48 1020.0
20260503194940 20 258 3.2 6.4 0.00 0.00 0.00 48 1020.1
20260503194437 21 256 3.2 6.4 0.00 0.00 0.00 49 1020.2
20260503193932 21 242 4.8 8.0 0.00 0.00 0.00 47 1020.4
20260503193428 21 267 4.8 6.4 0.00 0.00 0.00 47 1020.2
20260503192924 20 314 3.2 8.0 0.00 0.00 0.00 46 1020.5
20260503192421 20 296 3.2 6.4 0.00 0.00 0.00 48 1020.4
20260503191916 22 36 4.8 4.8 0.00 0.00 0.00 44 1020.6
20260503191414 22 213 3.2 8.0 0.00 0.00 0.00 47 1020.7
20260503190910 22 153 0.0 3.2 0.00 0.00 0.00 46 1020.7
20260503190408 21 227 1.6 4.8 0.00 0.00 0.00 44 1021.0
20260503185904 22 271 1.6 4.8 0.00 0.00 0.00 48 1020.8
20260503185401 21 237 3.2 8.0 0.00 0.00 0.00 47 1020.8
20260503184900 21 252 4.8 8.0 0.00 0.00 0.00 47 1020.8
20260503184356 22 266 4.8 6.4 0.00 0.00 0.00 45 1021.0
20260503183853 21 237 3.2 8.0 0.00 0.00 0.00 46 1021.1
20260503183350 21 335 0.0 4.8 0.00 0.00 0.00 46 1021.1
20260503182847 21 263 4.8 8.0 0.00 0.00 0.00 45 1021.1
20260503182346 21 272 4.8 8.0 0.00 0.00 0.00 47 1021.3
20260503181842 20 218 3.2 6.4 0.00 0.00 0.00 45 1021.3
20260503181340 21 287 3.2 9.7 0.00 0.00 0.00 44 1021.1
20260503180836 21 351 3.2 6.4 0.00 0.00 0.00 46 1021.3
20260503180334 22 321 3.2 6.4 0.00 0.00 0.00 42 1021.2
20260503175830 23 243 3.2 4.8 0.00 0.00 0.00 42 1021.4
20260503175328 22 12 4.8 4.8 0.00 0.00 0.00 40 1021.3
20260503174823 21 96 6.4 6.4 0.00 0.00 0.00 42 1021.4
20260503174322 22 331 4.8 4.8 0.00 0.00 0.00 42 1021.2
20260503173817 21 42 8.0 9.7 0.00 0.00 0.00 43 1021.2
20260503173314 22 301 6.4 12.9 0.00 0.00 0.00 40 1021.2
20260503172811 22 98 0.0 3.2 0.00 0.00 0.00 43 1021.5
20260503172309 22 40 0.0 4.8 0.00 0.00 0.00 39 1021.4
20260503171804 22 3 4.8 9.7 0.00 0.00 0.00 40 1021.4
20260503171301 22 115 0.0 4.8 0.00 0.00 0.00 43 1021.5
20260503170758 22 137 1.6 4.8 0.00 0.00 0.00 40 1021.4
20260503170255 21 81 0.0 6.4 0.00 0.00 0.00 42 1021.5
20260503160217 19 180 1.6 4.8 0.00 0.00 0.00 46 1021.9
20260503150647 17 99 4.8 6.4 0.00 0.00 0.00 52 1022.0
20260503150143 17 113 4.8 8.0 0.00 0.00 0.00 52 1022.1
20260503140108 15 141 3.2 8.0 0.00 0.00 0.00 67 1021.6
20260503131037 13 159 3.2 8.0 0.00 0.00 0.00 88 1021.5
20260503130534 12 66 6.4 8.0 0.00 0.00 0.00 92 1021.5
20260503110425 8 193 0.0 0.0 0.00 0.00 0.00 99 1020.3
20260503090316 9 69 0.0 1.6 0.00 0.00 0.00 99 1018.9
20260503081243 10 77 0.0 0.0 0.00 0.00 0.00 99 1018.6
20260503080738 10 173 0.0 1.6 0.00 0.00 0.00 99 1018.5
20260503080236 10 78 3.2 3.2 0.00 0.00 0.00 99 1018.6
20260503072713 10 209 0.0 0.0 0.00 0.00 0.00 99 1018.1
20260503072209 10 209 0.0 0.0 0.00 0.00 0.00 99 1018.1
20260503071706 10 23 0.0 0.0 0.00 0.00 0.00 99 1018.2
20260503071203 10 46 3.2 4.8 0.00 0.00 0.00 99 1018.3
20260503070659 10 113 0.0 4.8 0.00 0.00 0.00 99 1018.1
20260503070158 10 89 3.2 3.2 0.00 0.00 0.00 99 1018.1
20260503060122 10 98 0.0 3.2 0.00 0.00 0.00 99 1017.9
20260503055114 10 102 1.6 4.8 0.00 0.00 0.00 99 1018.0
20260503054609 10 80 0.0 1.6 0.00 0.00 0.00 99 1017.9
20260503054106 11 85 4.8 4.8 0.00 0.00 0.00 99 1018.0
20260503053605 10 101 1.6 1.6 0.00 0.00 0.00 99 1017.8
20260503053103 10 59 3.2 3.2 0.00 0.00 0.00 99 1017.9
20260503052559 11 17 0.0 1.6 0.00 0.00 0.00 98 1018.0
20260503052055 11 119 0.0 4.8 0.00 0.00 0.00 98 1017.8
20260503051550 11 69 1.6 4.8 0.00 0.00 0.00 98 1017.8
20260503051049 11 55 0.0 3.2 0.00 0.00 0.00 98 1017.7
20260503050544 11 233 0.0 1.6 0.00 0.00 0.00 98 1017.8
20260503050042 11 102 6.4 6.4 0.00 0.00 0.00 98 1017.7
20260503045538 11 119 0.0 3.2 0.00 0.00 0.00 98 1017.7
20260503045036 11 114 4.8 4.8 0.00 0.00 0.00 98 1017.6
20260503044533 11 81 0.0 3.2 0.00 0.00 0.00 98 1017.4
20260503044030 11 197 0.0 3.2 0.00 0.00 0.00 97 1017.3
20260503043526 11 114 0.0 6.4 0.00 0.00 0.00 97 1017.5
20260503043023 11 134 0.0 1.6 0.00 0.00 0.00 97 1017.3
20260503042520 11 55 0.0 4.8 0.00 0.00 0.00 97 1017.4
20260503042016 11 54 0.0 4.8 0.00 0.00 0.00 97 1017.4
20260503041513 11 88 1.6 9.7 0.00 0.00 0.00 97 1017.2
20260503041011 11 121 1.6 12.9 0.00 0.00 0.00 97 1017.1
20260503040508 11 88 1.6 4.8 0.00 0.00 0.00 97 1017.2
20260503040005 11 128 1.6 8.0 0.00 2.57 2.57 97 1017.1
20260503035502 11 74 3.2 8.0 0.00 2.57 2.57 97 1017.0
20260503035000 12 59 3.2 3.2 0.00 2.57 2.57 97 1017.1
20260503034456 12 105 4.8 6.4 0.00 2.57 2.57 97 1017.0
20260503033953 12 99 4.8 6.4 0.00 2.57 2.57 97 1016.9
20260503033451 12 106 4.8 4.8 0.00 2.57 2.57 96 1016.8
20260503032949 12 77 4.8 6.4 0.00 2.57 2.57 96 1016.6
20260503032447 12 98 0.0 8.0 0.00 2.57 2.57 96 1016.6
20260503031944 12 104 6.4 12.9 0.00 2.57 2.57 96 1016.6
20260503031442 12 32 1.6 4.8 0.00 2.57 2.57 96 1016.4
20260503030938 12 106 8.0 9.7 0.00 2.57 2.57 97 1016.4
20260503030435 12 72 3.2 9.7 0.00 2.57 2.57 97 1016.3
20260503025932 12 71 6.4 8.0 0.00 2.57 2.57 97 1016.3
20260503025429 12 73 3.2 8.0 0.00 2.57 2.57 97 1016.3
20260503024927 12 92 8.0 11.3 0.00 2.57 2.57 97 1016.3
20260503024423 12 114 4.8 12.9 0.00 2.57 2.57 97 1016.1
20260503023920 12 63 1.6 3.2 0.00 2.57 2.57 98 1016.1
20260503023417 12 107 3.2 8.0 0.00 2.57 2.57 98 1015.9
20260503022913 12 39 6.4 6.4 0.00 2.57 2.57 98 1015.8
20260503022408 12 112 0.0 3.2 0.00 2.57 2.57 98 1015.7
20260503021904 12 86 3.2 3.2 0.00 2.57 2.57 98 1015.7
20260503021401 12 101 3.2 4.8 0.00 2.57 2.57 98 1015.5
20260503020858 12 91 0.0 4.8 0.00 2.57 2.57 98 1015.5
20260503020356 12 60 0.0 4.8 0.00 2.57 2.57 98 1015.4
20260503015852 12 135 0.0 1.6 0.00 2.57 2.57 98 1015.4
20260503015349 12 49 0.0 3.2 0.00 2.57 2.57 98 1015.5
20260503014844 12 129 0.0 6.4 0.00 2.57 2.57 98 1015.1
20260503014343 12 89 0.0 4.8 0.00 2.57 2.57 98 1015.0
20260503013840 12 124 0.0 3.2 0.00 2.57 2.57 98 1015.1
20260503013337 12 86 4.8 4.8 0.00 2.57 2.57 98 1015.0
20260503012834 12 202 0.0 3.2 0.00 2.57 2.57 98 1015.3
20260503012332 12 119 0.0 3.2 0.00 2.57 2.57 98 1015.2
20260503011829 12 69 4.8 4.8 0.00 2.57 2.57 98 1015.2
20260503011325 12 68 1.6 1.6 0.00 2.57 2.57 98 1015.2
20260503010822 12 106 1.6 4.8 0.00 2.57 2.57 98 1015.1
20260503010319 12 87 3.2 4.8 0.00 2.57 2.57 98 1015.3
20260503005816 12 107 1.6 8.0 0.00 2.57 2.57 98 1015.2
20260503005313 12 64 1.6 4.8 0.00 2.57 2.57 98 1015.1
20260503004809 12 78 3.2 3.2 0.00 2.57 2.57 98 1014.9
20260503004307 12 113 0.0 4.8 0.00 2.57 2.57 98 1014.8
20260503003805 12 110 4.8 8.0 0.00 2.57 2.57 98 1015.0
20260503003301 12 88 1.6 3.2 0.00 2.57 2.57 98 1014.6
20260503002758 12 206 0.0 8.0 0.00 2.57 2.57 98 1014.2
20260503002255 12 96 3.2 6.4 0.00 2.57 2.57 98 1014.2
20260503001751 12 120 0.0 3.2 0.00 2.57 2.57 98 1014.2
20260503001248 12 199 0.0 3.2 0.00 2.57 2.57 98 1014.2
20260503000746 12 115 8.0 9.7 0.00 2.57 2.57 98 1014.4
20260503000243 12 167 1.6 8.0 0.00 2.57 2.57 98 1014.5
20260502235740 12 102 0.0 4.8 0.00 2.57 2.57 98 1014.2
20260502235237 13 129 0.0 3.2 0.00 2.57 2.57 98 1014.0
20260502234733 12 119 0.0 3.2 0.00 2.57 2.57 98 1013.9
20260502234231 12 87 4.8 9.7 0.00 2.57 2.57 98 1013.9
20260502233727 12 93 3.2 9.7 0.00 2.57 2.57 99 1014.1
20260502233224 13 94 3.2 11.3 0.00 2.57 2.57 99 1014.1
20260502232719 13 111 4.8 8.0 0.00 2.57 2.57 99 1013.8
20260502232217 13 89 3.2 4.8 0.00 2.57 2.57 99 1013.5
20260502231713 13 117 4.8 12.9 0.00 2.57 2.57 99 1013.5
20260502231211 13 116 3.2 9.7 0.00 2.57 2.57 99 1013.2
20260502230710 13 105 4.8 9.7 0.00 2.57 2.57 99 1013.3
20260502230208 13 116 1.6 4.8 0.00 2.57 2.57 99 1013.4
20260502225703 13 106 9.7 9.7 0.00 2.57 2.57 99 1013.3
20260502225200 13 67 3.2 4.8 0.00 2.57 2.57 99 1013.5
20260502224656 13 70 3.2 6.4 0.00 2.57 2.57 99 1013.3
20260502224153 13 96 3.2 8.0 0.00 2.57 2.57 99 1013.3
20260502223651 13 104 3.2 4.8 0.05 2.57 2.57 99 1013.5
20260502223149 13 99 4.8 8.0 0.05 2.57 2.57 99 1013.6
20260502222647 13 80 4.8 6.4 0.00 2.57 2.57 99 1013.5
20260502222143 13 110 3.2 17.7 0.00 2.57 2.57 99 1013.4
20260502221638 13 51 3.2 9.7 0.00 2.57 2.57 99 1013.5
20260502221136 13 101 3.2 4.8 0.05 2.57 2.57 99 1013.2
20260502220631 13 84 3.2 8.0 0.05 2.57 2.57 99 1013.3
20260502220122 13 141 0.0 3.2 0.00 2.54 2.54 99 1013.0
20260502215620 13 125 1.6 4.8 0.00 2.54 2.54 99 1013.0